Weather History for Livingston, MT

Change the Weather History Date:

Tuesday, October 22, 2013

  Actual Average Record
Temperature  
Mean Temperature 51 °F 43 °F  
Max Temperature 69 °F 56 °F 82 °F (2003)
Min Temperature 33 °F 30 °F 13 °F (1957)
Degree Days  
Heating Degree Days 14 22  
Month to date heating degree days 474 407  
Since 1 July heating degree days 647 816  
Cooling Degree Days 0 0  
Month to date cooling degree days 0 0  
Year to date cooling degree days 495 229  
Moisture  
Dew Point 27 °F    
Average Humidity 50    
Maximum Humidity 82    
Minimum Humidity 17    
Precipitation  
Precipitation 0.00 in 0.03 in 0.45 in (1975)
Month to date precipitation 1.14 0.98  
Year to date precipitation 10.97 13.42  
Sea Level Pressure  
Sea Level Pressure 30.13 in    
Wind  
Wind Speed 15 mph (WNW)    
Max Wind Speed 28 mph    
Max Gust Speed 33 mph    
Visibility 10 miles    
Events      
T = Trace of Precipitation, MM = Missing Value Source: NWS Daily Summary

Daily Weather History Graph

Daily Weather History Graph

Search for Another Location

Airport:

Trip Planner

Search our weather history database for the weather conditions in past years. The results will help you decide how hot, cold, wet, or windy it might be!

Date:

Astronomy

Oct. 22, 2013 Rise Set
Actual Time 7:48 AM MDT 6:23 PM MDT
Civil Twilight 7:17 AM MDT 6:53 PM MDT
Nautical Twilight 6:43 AM MDT 7:28 PM MDT
Astronomical Twilight 6:08 AM MDT 8:02 PM MDT
Moon 8:58 PM MDT (10/22) 11:27 AM MDT (10/22)
Length of Visible Light 11h 35m
Length of Day
10h 35m
Waning Gibbous, 86% of the Moon is Illuminated
Oct 22
Waning Gibbous
Oct 26
Last Quarter
Nov 3
New
Nov 9
First Quarter
Nov 17
Full

Hourly Weather History & Observations

Time (MDT) Temp. Windchill Dew Point Humidity Pressure Visibility Wind Dir Wind Speed Gust Speed Precip Events Conditions
12:53 AM 37.9 °F 30.9 °F 30.0 °F 73% 30.17 in 10.0 mi NW 10.4 mph - N/A   Clear
1:53 AM 37.0 °F 29.3 °F 30.0 °F 76% 30.16 in 10.0 mi NW 11.5 mph - N/A   Clear
2:53 AM 37.9 °F 28.9 °F 30.0 °F 73% 30.16 in 10.0 mi NW 16.1 mph - N/A   Clear
3:53 AM 37.0 °F 28.5 °F 28.9 °F 73% 30.16 in 10.0 mi NW 13.8 mph - N/A   Clear
4:53 AM 43.0 °F 35.4 °F 30.0 °F 60% 30.14 in 10.0 mi NW 16.1 mph 20.7 mph N/A   Clear
5:53 AM 34.0 °F 24.2 °F 28.0 °F 79% 30.18 in 10.0 mi NW 15.0 mph - N/A   Clear
6:53 AM 33.1 °F 23.9 °F 27.0 °F 78% 30.21 in 10.0 mi NW 12.7 mph - N/A   Clear
7:53 AM 39.0 °F 30.6 °F 28.0 °F 65% 30.19 in 10.0 mi NW 15.0 mph 27.6 mph N/A   Clear
8:53 AM 37.0 °F 27.0 °F 28.9 °F 73% 30.22 in 10.0 mi NNW 18.4 mph 23.0 mph N/A   Clear
9:15 AM 48.2 °F - 30.2 °F 50% 30.18 in 10.0 mi West 18.4 mph 29.9 mph N/A   Clear
9:53 AM 54.0 °F - 30.0 °F 40% 30.16 in 10.0 mi WSW 25.3 mph 31.1 mph N/A   Clear
10:53 AM 59.0 °F - 28.9 °F 32% 30.14 in 10.0 mi WSW 25.3 mph 29.9 mph N/A   Clear
11:53 AM 64.0 °F - 28.0 °F 26% 30.11 in 10.0 mi WSW 20.7 mph 27.6 mph N/A   Clear
12:53 PM 64.9 °F - 28.0 °F 25% 30.09 in 10.0 mi WSW 23.0 mph 28.8 mph N/A   Clear
1:53 PM 68.0 °F - 24.1 °F 19% 30.06 in 10.0 mi West 25.3 mph 31.1 mph N/A   Clear
2:53 PM 68.0 °F - 21.0 °F 17% 30.05 in 10.0 mi West 24.2 mph 32.2 mph N/A   Clear
3:53 PM 68.0 °F - 21.0 °F 17% 30.05 in 10.0 mi WSW 18.4 mph 26.5 mph N/A   Clear
4:53 PM 66.9 °F - 21.9 °F 18% 30.05 in 10.0 mi WSW 15.0 mph - N/A   Clear
5:53 PM 62.1 °F - 25.0 °F 24% 30.09 in 10.0 mi WSW 10.4 mph - N/A   Clear
6:53 PM 51.1 °F - 27.0 °F 39% 30.13 in 10.0 mi NW 9.2 mph - N/A   Clear
7:53 PM 51.1 °F - 26.1 °F 38% 30.12 in 10.0 mi SW 6.9 mph - N/A   Clear
8:53 PM 42.1 °F - 27.0 °F 55% 30.17 in 10.0 mi Calm Calm - N/A   Clear
9:53 PM 42.1 °F 39.2 °F 27.0 °F 55% 30.13 in 10.0 mi West 4.6 mph - N/A   Clear
10:53 PM 39.0 °F 34.0 °F 27.0 °F 62% 30.13 in 10.0 mi NW 6.9 mph - N/A   Clear
11:53 PM 39.0 °F 32.3 °F 27.0 °F 62% 30.12 in 10.0 mi NW 10.4 mph - N/A   Clear